This is the latest recevied weather packets stored in our database for station/object KM4NDI. If no packets are shown the sender has not sent any weather packets the latest 10 day(s).
| Time | Temp. | Humidity | Pressure | Rain* | Wind** | Luminosity | Snow |
|---|---|---|---|---|---|---|---|
| 1777443324 | 19.44° C | 99% | 1018.3 hPa | 8.13 mm | - | - | - |
| 1777442130 | 19.44° C | 99% | 1018 hPa | 7.11 mm | - | - | - |
| 1777438531 | 20° C | 99% | 1017.6 hPa | 3.56 mm | - | - | - |
| 1777436722 | 20° C | 99% | 1017 hPa | 2.03 mm | - | - | - |
| 1777434336 | 20° C | 99% | 1017.7 hPa | 0 mm | - | - | - |
| 1777433117 | 20° C | 99% | 1018.3 hPa | 0.25 mm | - | - | - |
| 1777432546 | 19.44° C | 99% | 1018.5 hPa | 0.51 mm | - | - | - |
| 1777431332 | 19.44° C | 99% | 1018.3 hPa | 2.29 mm | - | - | - |
| 1777427732 | 20° C | 99% | 1020.2 hPa | 4.06 mm | - | - | - |
| 1777425346 | 20° C | 99% | 1020.4 hPa | 6.35 mm | - | - | - |
| 1777422324 | 20° C | 99% | 1018.7 hPa | 2.54 mm | - | - | - |
| 1777421118 | 20.56° C | 99% | 1020.9 hPa | 1.52 mm | - | - | - |
| 1777415125 | 21.67° C | 99% | 1017.5 hPa | 0 mm | - | - | - |
| 1777405521 | 25.56° C | 97% | 1020.2 hPa | 0 mm | - | - | - |
| 1777403115 | 23.89° C | 99% | 1020.9 hPa | 0 mm | - | - | - |
| 1777394763 | 21.67° C | 99% | 1022.1 hPa | 0 mm | - | - | - |
| 1777392317 | 21.67° C | 99% | 1022.2 hPa | 1.27 mm | - | - | - |
| 1777387524 | 20.56° C | 99% | 1022.4 hPa | 0.76 mm | - | - | - |
| 1777385118 | 20.56° C | 99% | 1022.9 hPa | 0.51 mm | - | - | - |
| 1777383315 | 21.11° C | 99% | 1022.4 hPa | 0.51 mm | - | - | - |
| 1777382115 | 21.67° C | 99% | 1022.1 hPa | 0 mm | - | - | - |
| 1777381518 | 21.67° C | 99% | 1021.8 hPa | 0 mm | - | - | - |
| 1777376725 | 22.22° C | 99% | 1019.7 hPa | 0 mm | - | - | - |
| 1777369526 | 22.22° C | 99% | 1018.4 hPa | 0 mm | - | - | - |
| 1777368929 | 22.22° C | 99% | 1018.5 hPa | 0 mm | - | - | - |
* Rain latest hour (hover to see other rain measurements)
** Current wind speed in m/s (hover to see current wind gust speed)